Flag for Germany Weather past 2 weeks in Weil am Rhein, Baden-Württemberg, Germany

Now
41 °F

Light rain. Overcast.


Feels Like: 33 °F
Forecast: 33 / 41 °F
Wind: 14 mph from Southwest

Location: Bale-Mulhouse

Current Time: Jan 29, 2015 at 1:40:46 PM

Latest Report: Jan 29, 2015 at 1:00 PM


Visibility: 19 mi

Pressure: 29.41 "Hg

Humidity: 82%

Dew point: 36 °F

Location of Weil am RheinLocation

Historic Weather in Weil am Rhein — Graph

°F

Weil am Rhein temperature yesterday

Maximum temperature yesterday: 44 °F (at 11:00 PM)
Minimum temperature yesterday: 29 °F (at 3:00 AM)
Average temperature yesterday: 36 °F

Past Weeks' High & Low Weather Summary

 TemperatureHumidityPressure
High48 °F (Jan 15, 2:00 PM)98% (Jan 20, 7:00 AM)30.49 "Hg (Jan 20, 7:00 AM)
Low27 °F (Jan 18, 6:00 AM)66% (Jan 14, 2:00 PM)29.47 "Hg (Jan 29, 12:00 PM)
Average36 °F89%30.05 "Hg
* Reported Jan 14 12:00 Noon — Jan 29 12:00 Noon, Weil am Rhein, Weather by CustomWeather, © 2014

Note: Actual official high and low records may vary slightly from our data, if they occured in-between our weather recording intervals... More about our weather records

Advertising

Weil am Rhein weather history for previous 24 hours

 ConditionsComfort  
Time TempWeatherWind HumidityBarometerVisibility
12:00 PM
Jan 29
41 °FOvercast.3 mph80%29.47 "Hg19 mi
11:00 AM39 °FOvercast.5 mph83%29.54 "Hg19 mi
10:00 AM37 °FOvercast.3 mph88%29.58 "Hg19 mi
9:00 AM36 °FOvercast.6 mph86%29.62 "Hg19 mi
8:00 AM35 °FLow clouds.3 mph87%29.65 "Hg19 mi
7:00 AM35 °FOvercast.No wind86%29.66 "Hg37 mi
6:00 AM36 °FOvercast.8 mph87%29.68 "Hg19 mi
5:00 AM35 °FLight rain. Overcast.8 mph90%29.70 "Hg9 mi
3:00 AM36 °FLight rain. Overcast.13 mph91%29.72 "Hg7 mi
2:00 AM39 °FLight rain. Overcast.15 mph86%29.69 "Hg22 mi
1:00 AM43 °FHeavy rain. Overcast.13 mph86%29.66 "Hg11 mi
12:00 AM45 °FOvercast.15 mph77%29.66 "Hg37 mi
11:00 PM
Jan 28
44 °FLight rain. Overcast.12 mph82%29.69 "Hg12 mi
10:00 PM41 °FOvercast.7 mph77%29.72 "Hg19 mi
9:00 PM40 °FOvercast.6 mph75%29.76 "Hg19 mi
8:00 PM40 °FOvercast.5 mph75%29.81 "Hg19 mi
7:00 PM40 °FOvercast.3 mph72%29.85 "Hg19 mi
6:00 PM40 °FOvercast.7 mph71%29.89 "Hg25 mi
5:00 PM41 °FLight rain. Overcast.14 mph72%29.94 "Hg25 mi
4:00 PM42 °FOvercast.10 mph67%29.97 "Hg19 mi
3:00 PM42 °FOvercast.8 mph68%29.99 "Hg34 mi
2:00 PM40 °FOvercast.2 mph70%30.05 "Hg16 mi
1:00 PM40 °FOvercast.3 mph72%30.10 "Hg16 mi
Weather by CustomWeather, © 2014

See weather overviewHow to use our weather pages